CANX-1

Satellite information

Favourite Embed

Satellite Type and Status

PAYLOADIN ORBIT

Key statistics

Satellite CANX-1 at a glance.

Uptime

8041

Days in orbit

Revolutions

≈ 14.2

Per day

Orbit

SSO

Sun Synchronous Orbit

Inclination

98.7

Latest

Satellite identification and parameters

Extended collection of information and parameters for CANX-1.

Object identification

Identified? True

Debris? False

Object name: CANX-1

International designator: 2003-031H

Object number (NORAD): 27847

Object ID (CCSDS): 27847

Country: CANADA (CA)

Current information (Y/N): Y

RCS size: SMALL

Orbital parameters

Period: 101.152 minutes

Inclination: 98.6875 deg

SMA: 7191.327 km

Apoapsis: 820.761 km

Periapsis: 805.623 km

RAAN: 193.1561 deg

Eccentricy: 0.0010525

Argument of periapsis: 92.7141 deg

Mean anomaly: 267.5242 deg

Mean motion: 14.2360394 rev/day

Mean motion (dot): 0.00000198 rev/day2

B* drag term: 0.00010604 1/REarth

Two-line elements (TLE)

Creation date: July 4, 2025, 2:46 p.m.

Reference frame: TEME

Reference center: EARTH

Epoch: July 4, 2025, 12:34 p.m. UTC

TLE line 0: 0 CANX-1

TLE line 1: 1 27847U 03031H 25185.52428162 .00000198 00000-0 10604-3 0 9998

TLE line 2: 2 27847 98.6875 193.1561 0010525 92.7141 267.5242 14.23603940142272

Live tracking on map

Real-time ground track for satellite CANX-1.

In-orbit conjunctions

There are no conjunctions computed for CANX-1, at the moment. Check back to stay up to date, as we update our databases every day.

Go to all conjunctions

Associated space launch

MIMOSA (Micro Measurements Of Satellite Acceleration) is a microsatellite to measure atmospheric drag.

CANX-1 was lifted into orbit during the mission ‘Rokot / Briz-KM | Mimosa’, on board a Rokot/Briz-KM space rocket.

The launch took place on June 30, 2003, 2:15 p.m. from 133/3 (133L).

For more information about the launch, click the button.

Launch to space Rokot / Briz-KM | Mimosa
Rokot / Briz-KM | Mimosa

Agency: N/A

Status: Launch Successful

Launch date: June 30, 2003, 2:15 p.m. UTC

Rocket: Rokot/Briz-KM

Launch pad: 133/3 (133L)

Location: Plesetsk Cosmodrome, Russian Federation

...

Latest news about this satellite

There are no fresh news available about this satellite. Check back as we update our databases every day.


Newsletter sign-up

Weekly statistics, charts and insights to help you stay on top of the space industry.